Bluefield, WV

9:07 PM EDT on May 20, 2018 (GMT -0400)
Mercer County

Weather History for KBLF - April, 2014

Change the Weather History Date:

Thursday, April 3, 2014

  Actual Average Record
Temperature  
Mean Temperature 68 °F 51 °F  
Max Temperature 79 °F 61 °F 81 °F (2010)
Min Temperature 56 °F 42 °F 21 °F (1961)
Degree Days  
Heating Degree Days 0 14  
Month to date heating degree days 2 44  
Since 1 July heating degree days 4339 4153  
Cooling Degree Days 3 1  
Month to date cooling degree days 5 1  
Year to date cooling degree days 5 5  
Growing Degree Days 18 (Base 50)    
Moisture  
Dew Point 47 °F    
Average Humidity 44    
Maximum Humidity 57    
Minimum Humidity 30    
Precipitation  
Precipitation 0.39 in 0.10 in 1.33 in (1987)
Month to date precipitation 0.40 0.31  
Year to date precipitation 6.49 9.48  
Snow  
Snow 0.00 in - - ()
Month to date snowfall 0.0  
Since 1 July snowfall 46.6  
Snow Depth 0.00 in    
Sea Level Pressure  
Sea Level Pressure 29.93 in    
Wind  
Wind Speed 8 mph (SW)    
Max Wind Speed 29 mph    
Max Gust Speed 40 mph    
Visibility 10 miles    
Events Rain , Thunderstorm    
T = Trace of Precipitation, MM = Missing Value Source: NWS Daily Summary

Daily Weather History Graph

Daily Weather History Graph

Search for Another Location

Airport or City:

Astronomy

Apr. 03, 2014 Rise Set
Actual Time 7:07 AM EDT 7:49 PM EDT
Civil Twilight 6:41 AM EDT 8:15 PM EDT
Nautical Twilight 6:10 AM EDT 8:46 PM EDT
Astronomical Twilight 5:38 AM EDT 9:18 PM EDT
Moon 9:39 AM EDT (4/3) No Moon Set
Length of Visible Light 13h 34m
Length of Day
12h 41m
Waxing Crescent, 17% of the Moon is Illuminated
Apr 3
Waxing Crescent
Apr 7
First Quarter
Apr 15
Full
Apr 22
Last Quarter
Apr 29
New

Hourly Weather History & Observations

Time (EDT) Temp. Dew Point Humidity Pressure Visibility Wind Dir Wind Speed Gust Speed Precip Events Conditions
12:52 AM 63.0 °F 42.1 °F 46% 30.00 in 10.0 mi ESE 4.6 mph - N/A   Clear
1:52 AM 61.0 °F 42.1 °F 50% 29.97 in 10.0 mi Variable 3.5 mph - N/A   Clear
2:52 AM 59.0 °F 42.1 °F 53% 29.96 in 10.0 mi Calm Calm - N/A   Clear
3:52 AM 57.9 °F 42.1 °F 56% 29.96 in 10.0 mi Calm Calm - N/A   Clear
4:52 AM 57.0 °F 42.1 °F 57% 29.97 in 10.0 mi SE 3.5 mph - N/A   Clear
5:52 AM 59.0 °F 42.1 °F 53% 29.96 in 10.0 mi Calm Calm - N/A   Clear
6:52 AM 61.0 °F 42.1 °F 50% 29.97 in 10.0 mi SW 4.6 mph - N/A   Clear
7:52 AM 62.1 °F 44.1 °F 52% 29.99 in 10.0 mi WSW 6.9 mph - N/A   Clear
8:52 AM 63.0 °F 43.0 °F 48% 29.99 in 10.0 mi SSW 8.1 mph 17.3 mph N/A   Overcast
9:52 AM 63.0 °F 46.9 °F 56% 29.99 in 10.0 mi Calm Calm - N/A   Overcast
10:52 AM 69.1 °F 50.0 °F 51% 29.98 in 10.0 mi South 6.9 mph - N/A   Scattered Clouds
11:52 AM 70.0 °F 50.0 °F 49% 29.94 in 10.0 mi SW 8.1 mph - N/A   Mostly Cloudy
12:52 PM 72.0 °F 48.9 °F 44% 29.91 in 10.0 mi WSW 9.2 mph 17.3 mph N/A   Clear
1:52 PM 75.0 °F 48.9 °F 40% 29.88 in 10.0 mi WSW 12.7 mph 19.6 mph N/A   Clear
2:52 PM 78.1 °F 48.9 °F 36% 29.86 in 10.0 mi WSW 16.1 mph 21.9 mph N/A   Clear
3:52 PM 78.1 °F 45.0 °F 31% 29.83 in 10.0 mi SSW 15.0 mph 25.3 mph N/A   Clear
4:52 PM 78.1 °F 46.9 °F 33% 29.82 in 10.0 mi WSW 13.8 mph 24.2 mph N/A   Clear
5:52 PM 77.0 °F 46.9 °F 34% 29.81 in 10.0 mi WSW 21.9 mph 27.6 mph N/A   Clear
6:52 PM 75.9 °F 46.9 °F 36% 29.82 in 10.0 mi WSW 17.3 mph 24.2 mph N/A   Clear
7:52 PM 73.9 °F 48.9 °F 41% 29.83 in 10.0 mi SW 10.4 mph - N/A   Partly Cloudy
8:52 PM 71.1 °F 51.1 °F 49% 29.84 in 10.0 mi South 4.6 mph - N/A   Overcast
9:43 PM 70.0 °F 51.1 °F 51% 29.99 in 10.0 mi WNW 27.6 mph 40.3 mph N/A Thunderstorm Overcast
9:45 PM 68.0 °F 52.0 °F 56% 29.99 in 9.0 mi NW 24.2 mph 40.3 mph 0.01 in Rain , Thunderstorm Light Thunderstorms and Rain
9:52 PM 62.1 °F 54.0 °F 75% 29.93 in 3.0 mi WNW 16.1 mph 40.3 mph 0.16 in Rain , Thunderstorm Thunderstorms and Rain
10:11 PM 62.1 °F 53.1 °F 72% 30.00 in 10.0 mi WNW 12.7 mph 19.6 mph 0.01 in   Mostly Cloudy
11:52 PM 60.1 °F 54.0 °F 80% 29.91 in 5.0 mi WSW 4.6 mph - 0.05 in Rain Rain